Location: Friaudour
(46.0460°N, 1.2873°E)
Time: 15:24:51
(UTC+00:00)

Spot 4 Rocket - Pass Details

Date: 31 October 2020
Orbit: 776 x 781 km, 98.7° (Epoch: 29 November)

Event Time Altitude Azimuth Distance (km) Brightness Sun altitude
Rises 03:03:48 0° 16° (NNE) 3,270 7.7 -36.7°
Reaches altitude 10° 03:06:09 10° 19° (NNE) 2,338 6.9 -36.3°
Enters shadow 03:07:40 20° 22° (NNE) 1,756 6.2 -36.0°
